Year,Month,Day,Hour,Minute,Value (Times are PST for windgust in km/hr)
2019,04,06,00,00,11.30
2019,04,06,00,01,11.30
2019,04,06,00,02,14.50
2019,04,06,00,03,19.30
2019,04,06,00,04,17.70
2019,04,06,00,05,22.50
2019,04,06,00,06,12.90
2019,04,06,00,07,12.90
2019,04,06,00,08,19.30
2019,04,06,00,09,12.90
2019,04,06,00,10,17.70
2019,04,06,00,11,11.30
2019,04,06,00,12,14.50
2019,04,06,00,13,16.10
2019,04,06,00,14,17.70
2019,04,06,00,15,14.50
2019,04,06,00,16,14.50
2019,04,06,00,17,17.70
2019,04,06,00,18,11.30
2019,04,06,00,19,14.50
2019,04,06,00,20,12.90
2019,04,06,00,21,12.90
2019,04,06,00,22,14.50
2019,04,06,00,23,14.50
2019,04,06,00,24,19.30
2019,04,06,00,25,17.70
2019,04,06,00,26,12.90
2019,04,06,00,27,11.30
2019,04,06,00,28,11.30
2019,04,06,00,29,14.50
2019,04,06,00,30,14.50
2019,04,06,00,31,8.10
2019,04,06,00,32,14.50
2019,04,06,00,33,11.30
2019,04,06,00,34,11.30
2019,04,06,00,35,11.30
2019,04,06,00,36,16.10
2019,04,06,00,37,16.10
2019,04,06,00,38,24.20
2019,04,06,00,39,12.90
2019,04,06,00,40,9.60
2019,04,06,00,41,16.10
2019,04,06,00,42,14.50
2019,04,06,00,43,11.30
2019,04,06,00,44,9.60
2019,04,06,00,45,6.40
2019,04,06,00,46,12.90
2019,04,06,00,47,11.30
2019,04,06,00,48,9.60
2019,04,06,00,49,6.40
2019,04,06,00,50,4.80
2019,04,06,00,51,8.10
2019,04,06,00,52,9.60
2019,04,06,00,53,8.10
2019,04,06,00,54,8.10
2019,04,06,00,55,11.30
2019,04,06,00,56,14.50
2019,04,06,00,57,9.60
2019,04,06,00,58,12.90
2019,04,06,00,59,16.10
2019,04,06,01,00,14.50
2019,04,06,01,01,9.60
2019,04,06,01,02,9.60
2019,04,06,01,03,9.60
2019,04,06,01,04,9.60
2019,04,06,01,05,14.50
2019,04,06,01,06,12.90
2019,04,06,01,07,6.40
2019,04,06,01,08,14.50
2019,04,06,01,09,11.30
2019,04,06,01,10,19.30
2019,04,06,01,11,12.90
2019,04,06,01,12,11.30
2019,04,06,01,13,16.10
2019,04,06,01,14,16.10
2019,04,06,01,15,11.30
2019,04,06,01,16,8.10
2019,04,06,01,17,16.10
2019,04,06,01,18,8.10
2019,04,06,01,19,8.10
2019,04,06,01,22,14.50
2019,04,06,01,23,8.10
2019,04,06,01,24,17.70
2019,04,06,01,25,12.90
2019,04,06,01,26,9.60
2019,04,06,01,27,4.80
2019,04,06,01,28,4.80
2019,04,06,01,29,3.20
2019,04,06,01,30,14.50
2019,04,06,01,31,11.30
2019,04,06,01,32,3.20
2019,04,06,01,33,9.60
2019,04,06,01,34,8.10
2019,04,06,01,35,8.10
2019,04,06,01,36,9.60
2019,04,06,01,37,11.30
2019,04,06,01,38,6.40
2019,04,06,01,39,4.80
2019,04,06,01,40,3.20
2019,04,06,01,41,3.20
2019,04,06,01,42,1.60
2019,04,06,01,43,3.20
2019,04,06,01,44,9.60
2019,04,06,01,45,6.40
2019,04,06,02,19,6.40
2019,04,06,02,20,1.60
2019,04,06,02,23,6.40
2019,04,06,02,24,4.80
2019,04,06,02,25,4.80
2019,04,06,02,28,4.80
2019,04,06,02,29,6.40
2019,04,06,02,30,4.80
2019,04,06,02,31,1.60
2019,04,06,02,32,4.80
2019,04,06,02,33,4.80
2019,04,06,02,34,1.60
2019,04,06,02,35,11.30
2019,04,06,02,36,6.40
2019,04,06,02,37,8.10
2019,04,06,02,38,3.20
2019,04,06,02,39,1.60
2019,04,06,02,40,1.60
2019,04,06,02,41,4.80
2019,04,06,02,42,1.60
2019,04,06,02,43,3.20
2019,04,06,02,44,3.20
2019,04,06,02,45,4.80
2019,04,06,02,46,1.60
2019,04,06,02,47,6.40
2019,04,06,02,48,4.80
2019,04,06,02,49,6.40
2019,04,06,02,50,1.60
2019,04,06,03,00,3.20
2019,04,06,03,01,9.60
2019,04,06,03,02,4.80
2019,04,06,03,03,6.40
2019,04,06,03,04,4.80
2019,04,06,03,29,8.10
2019,04,06,03,30,8.10
2019,04,06,03,31,6.40
2019,04,06,03,32,9.60
2019,04,06,03,37,1.60
2019,04,06,03,52,1.60
2019,04,06,04,03,8.10
2019,04,06,04,04,4.80
2019,04,06,04,05,6.40
2019,04,06,04,06,4.80
2019,04,06,04,11,3.20
2019,04,06,04,14,1.60
2019,04,06,04,16,1.60
2019,04,06,04,17,1.60
2019,04,06,04,19,9.60
2019,04,06,04,20,12.90
2019,04,06,04,21,9.60
2019,04,06,04,26,16.10
2019,04,06,04,27,16.10
2019,04,06,04,28,17.70
2019,04,06,04,29,17.70
2019,04,06,04,30,19.30
2019,04,06,04,31,20.90
2019,04,06,04,32,16.10
2019,04,06,04,33,8.10
2019,04,06,04,36,16.10
2019,04,06,04,37,17.70
2019,04,06,04,39,12.90
2019,04,06,04,40,9.60
2019,04,06,04,42,20.90
2019,04,06,04,43,16.10
2019,04,06,04,50,14.50
2019,04,06,04,51,14.50
2019,04,06,04,52,12.90
2019,04,06,04,56,12.90
2019,04,06,04,57,24.20
2019,04,06,04,59,25.70
2019,04,06,05,00,27.40
2019,04,06,05,01,25.70
2019,04,06,05,02,12.90
2019,04,06,05,03,20.90
2019,04,06,05,05,30.60
2019,04,06,05,06,30.60
2019,04,06,05,07,17.70
2019,04,06,05,08,14.50
2019,04,06,05,09,17.70
2019,04,06,05,10,4.80
2019,04,06,05,11,17.70
2019,04,06,05,12,14.50
2019,04,06,05,13,19.30
2019,04,06,05,14,22.50
2019,04,06,05,15,19.30
2019,04,06,05,16,12.90
2019,04,06,05,17,16.10
2019,04,06,05,18,19.30
2019,04,06,05,19,22.50
2019,04,06,05,20,27.40
2019,04,06,05,21,19.30
2019,04,06,05,22,32.20
2019,04,06,05,23,20.90
2019,04,06,05,24,20.90
2019,04,06,05,25,22.50
2019,04,06,05,26,19.30
2019,04,06,05,27,16.10
2019,04,06,05,28,12.90
2019,04,06,05,29,17.70
2019,04,06,05,30,37.00
2019,04,06,05,31,29.00
2019,04,06,05,32,22.50
2019,04,06,05,33,8.10
2019,04,06,05,34,11.30
2019,04,06,05,35,25.70
2019,04,06,05,36,25.70
2019,04,06,05,37,16.10
2019,04,06,05,38,14.50
2019,04,06,05,39,20.90
2019,04,06,05,40,17.70
2019,04,06,05,41,24.20
2019,04,06,05,42,20.90
2019,04,06,05,43,27.40
2019,04,06,05,44,19.30
2019,04,06,05,45,19.30
2019,04,06,05,46,25.70
2019,04,06,05,47,25.70
2019,04,06,05,48,30.60
2019,04,06,05,49,20.90
2019,04,06,05,50,27.40
2019,04,06,05,51,16.10
2019,04,06,05,52,37.00
2019,04,06,05,53,33.80
2019,04,06,05,54,20.90
2019,04,06,05,55,20.90
2019,04,06,05,56,29.00
2019,04,06,05,57,27.40
2019,04,06,05,58,29.00
2019,04,06,05,59,32.20
2019,04,06,06,00,29.00
2019,04,06,06,01,22.50
2019,04,06,06,02,29.00
2019,04,06,06,03,27.40
2019,04,06,06,04,29.00
2019,04,06,06,05,25.70
2019,04,06,06,06,19.30
2019,04,06,06,07,27.40
2019,04,06,06,08,32.20
2019,04,06,06,09,22.50
2019,04,06,06,10,20.90
2019,04,06,06,11,25.70
2019,04,06,06,12,30.60
2019,04,06,06,13,16.10
2019,04,06,06,14,25.70
2019,04,06,06,15,20.90
2019,04,06,06,16,25.70
2019,04,06,06,17,29.00
2019,04,06,06,18,27.40
2019,04,06,06,19,27.40
2019,04,06,06,20,25.70
2019,04,06,06,21,22.50
2019,04,06,06,22,25.70
2019,04,06,06,23,53.10
2019,04,06,06,24,30.60
2019,04,06,06,25,30.60
2019,04,06,06,26,30.60
2019,04,06,06,27,32.20
2019,04,06,06,28,43.50
2019,04,06,06,29,20.90
2019,04,06,06,30,22.50
2019,04,06,06,31,30.60
2019,04,06,06,32,25.70
2019,04,06,06,33,24.20
2019,04,06,06,34,19.30
2019,04,06,06,35,29.00
2019,04,06,06,36,27.40
2019,04,06,06,37,32.20
2019,04,06,06,38,20.90
2019,04,06,06,39,20.90
2019,04,06,06,40,20.90
2019,04,06,06,41,41.80
2019,04,06,06,42,25.70
2019,04,06,06,43,30.60
2019,04,06,06,44,22.50
2019,04,06,06,45,20.90
2019,04,06,06,46,30.60
2019,04,06,06,47,29.00
2019,04,06,06,48,37.00
2019,04,06,06,49,32.20
2019,04,06,06,50,35.40
2019,04,06,06,51,37.00
2019,04,06,06,52,29.00
2019,04,06,06,53,25.70
2019,04,06,06,54,35.40
2019,04,06,06,55,22.50
2019,04,06,06,56,29.00
2019,04,06,06,57,45.10
2019,04,06,06,58,27.40
2019,04,06,06,59,32.20
2019,04,06,07,00,29.00
2019,04,06,07,01,38.60
2019,04,06,07,02,29.00
2019,04,06,07,03,27.40
2019,04,06,07,04,38.60
2019,04,06,07,05,32.20
2019,04,06,07,06,20.90
2019,04,06,07,07,24.20
2019,04,06,07,08,30.60
2019,04,06,07,09,24.20
2019,04,06,07,10,29.00
2019,04,06,07,11,20.90
2019,04,06,07,12,17.70
2019,04,06,07,13,29.00
2019,04,06,07,14,40.20
2019,04,06,07,15,29.00
2019,04,06,07,16,29.00
2019,04,06,07,17,22.50
2019,04,06,07,18,29.00
2019,04,06,07,19,22.50
2019,04,06,07,20,25.70
2019,04,06,07,21,33.80
2019,04,06,07,22,27.40
2019,04,06,07,23,32.20
2019,04,06,07,24,22.50
2019,04,06,07,25,32.20
2019,04,06,07,26,41.80
2019,04,06,07,27,24.20
2019,04,06,07,28,25.70
2019,04,06,07,29,40.20
2019,04,06,07,30,38.60
2019,04,06,07,31,37.00
2019,04,06,07,32,32.20
2019,04,06,07,33,29.00
2019,04,06,07,34,17.70
2019,04,06,07,35,20.90
2019,04,06,07,36,27.40
2019,04,06,07,37,27.40
2019,04,06,07,38,33.80
2019,04,06,07,39,22.50
2019,04,06,07,40,25.70
2019,04,06,07,41,25.70
2019,04,06,07,42,27.40
2019,04,06,07,43,32.20
2019,04,06,07,44,40.20
2019,04,06,07,45,37.00
2019,04,06,07,46,40.20
2019,04,06,07,47,32.20
2019,04,06,07,48,24.20
2019,04,06,07,49,22.50
2019,04,06,07,50,27.40
2019,04,06,07,51,22.50
2019,04,06,07,52,24.20
2019,04,06,07,53,32.20
2019,04,06,07,54,32.20
2019,04,06,07,55,17.70
2019,04,06,07,56,17.70
2019,04,06,07,57,12.90
2019,04,06,07,58,11.30
2019,04,06,07,59,20.90
2019,04,06,08,00,35.40
2019,04,06,08,01,27.40
2019,04,06,08,02,22.50
2019,04,06,08,03,12.90
2019,04,06,08,04,20.90
2019,04,06,08,05,14.50
2019,04,06,08,06,29.00
2019,04,06,08,07,29.00
2019,04,06,08,08,27.40
2019,04,06,08,09,16.10
2019,04,06,08,10,14.50
2019,04,06,08,11,14.50
2019,04,06,08,12,29.00
2019,04,06,08,13,22.50
2019,04,06,08,14,22.50
2019,04,06,08,15,37.00
2019,04,06,08,16,25.70
2019,04,06,08,17,24.20
2019,04,06,08,18,25.70
2019,04,06,08,19,30.60
2019,04,06,08,20,35.40
2019,04,06,08,21,20.90
2019,04,06,08,22,27.40
2019,04,06,08,23,24.20
2019,04,06,08,24,20.90
2019,04,06,08,25,19.30
2019,04,06,08,26,16.10
2019,04,06,08,27,24.20
2019,04,06,08,28,19.30
2019,04,06,08,29,27.40
2019,04,06,08,30,29.00
2019,04,06,08,31,27.40
2019,04,06,08,32,32.20
2019,04,06,08,33,29.00
2019,04,06,08,34,25.70
2019,04,06,08,35,20.90
2019,04,06,08,36,33.80
2019,04,06,08,37,24.20
2019,04,06,08,38,25.70
2019,04,06,08,39,35.40
2019,04,06,08,40,29.00
2019,04,06,08,41,24.20
2019,04,06,08,42,24.20
2019,04,06,08,43,25.70
2019,04,06,08,44,29.00
2019,04,06,08,45,25.70
2019,04,06,08,46,25.70
2019,04,06,08,47,32.20
2019,04,06,08,48,20.90
2019,04,06,08,49,20.90
2019,04,06,08,50,30.60
2019,04,06,08,51,16.10
2019,04,06,08,52,22.50
2019,04,06,08,53,17.70
2019,04,06,08,54,30.60
2019,04,06,08,55,24.20
2019,04,06,08,56,19.30
2019,04,06,08,57,27.40
2019,04,06,08,58,22.50
2019,04,06,08,59,25.70
2019,04,06,09,00,24.20
2019,04,06,09,01,19.30
2019,04,06,09,02,14.50
2019,04,06,09,03,20.90
2019,04,06,09,04,22.50
2019,04,06,09,05,20.90
2019,04,06,09,06,16.10
2019,04,06,09,07,16.10
2019,04,06,09,08,24.20
2019,04,06,09,09,19.30
2019,04,06,09,10,24.20
2019,04,06,09,11,25.70
2019,04,06,09,12,19.30
2019,04,06,09,13,32.20
2019,04,06,09,14,32.20
2019,04,06,09,15,32.20
2019,04,06,09,16,22.50
2019,04,06,09,17,20.90
2019,04,06,09,18,19.30
2019,04,06,09,19,17.70
2019,04,06,09,20,19.30
2019,04,06,09,21,25.70
2019,04,06,09,22,27.40
2019,04,06,09,23,20.90
2019,04,06,09,24,33.80
2019,04,06,09,25,25.70
2019,04,06,09,26,33.80
2019,04,06,09,27,20.90
2019,04,06,09,28,33.80
2019,04,06,09,29,30.60
2019,04,06,09,30,25.70
2019,04,06,09,31,29.00
2019,04,06,09,32,29.00
2019,04,06,09,33,30.60
2019,04,06,09,34,24.20
2019,04,06,09,35,24.20
2019,04,06,09,36,33.80
2019,04,06,09,37,27.40
2019,04,06,09,38,22.50
2019,04,06,09,39,46.70
2019,04,06,09,40,35.40
2019,04,06,09,41,25.70
2019,04,06,09,42,27.40
2019,04,06,09,43,24.20
2019,04,06,09,44,17.70
2019,04,06,09,45,22.50
2019,04,06,09,46,22.50
2019,04,06,09,47,30.60
2019,04,06,09,48,37.00
2019,04,06,09,49,24.20
2019,04,06,09,50,25.70
2019,04,06,09,51,20.90
2019,04,06,09,52,32.20
2019,04,06,09,53,27.40
2019,04,06,09,54,48.30
2019,04,06,09,55,43.50
2019,04,06,09,56,29.00
2019,04,06,09,57,38.60
2019,04,06,09,58,46.70
2019,04,06,09,59,40.20
2019,04,06,10,00,32.20
2019,04,06,10,01,37.00
2019,04,06,10,02,32.20
2019,04,06,10,03,41.80
2019,04,06,10,04,22.50
2019,04,06,10,05,32.20
2019,04,06,10,06,33.80
2019,04,06,10,07,29.00
2019,04,06,10,08,41.80
2019,04,06,10,09,40.20
2019,04,06,10,10,43.50
2019,04,06,10,11,30.60
2019,04,06,10,12,33.80
2019,04,06,10,13,41.80
2019,04,06,10,14,38.60
2019,04,06,10,15,49.90
2019,04,06,10,16,51.50
2019,04,06,10,17,29.00
2019,04,06,10,18,40.20
2019,04,06,10,19,40.20
2019,04,06,10,20,46.70
2019,04,06,10,21,48.30
2019,04,06,10,22,62.70
2019,04,06,10,23,38.60
2019,04,06,10,24,41.80
2019,04,06,10,25,54.70
2019,04,06,10,26,48.30
2019,04,06,10,27,40.20
2019,04,06,10,28,38.60
2019,04,06,10,29,41.80
2019,04,06,10,30,61.20
2019,04,06,10,31,45.10
2019,04,06,10,32,46.70
2019,04,06,10,33,29.00
2019,04,06,10,34,29.00
2019,04,06,10,35,35.40
2019,04,06,10,36,33.80
2019,04,06,10,37,41.80
2019,04,06,10,38,41.80
2019,04,06,10,39,35.40
2019,04,06,10,40,48.30
2019,04,06,10,41,29.00
2019,04,06,10,42,40.20
2019,04,06,10,43,41.80
2019,04,06,10,44,40.20
2019,04,06,10,45,41.80
2019,04,06,10,46,49.90
2019,04,06,10,47,45.10
2019,04,06,10,48,38.60
2019,04,06,10,49,45.10
2019,04,06,10,50,51.50
2019,04,06,10,51,49.90
2019,04,06,10,52,38.60
2019,04,06,10,53,37.00
2019,04,06,10,54,48.30
2019,04,06,10,55,53.10
2019,04,06,10,56,51.50
2019,04,06,10,57,29.00
2019,04,06,10,58,43.50
2019,04,06,10,59,35.40
2019,04,06,11,00,37.00
2019,04,06,11,01,33.80
2019,04,06,11,02,33.80
2019,04,06,11,03,33.80
2019,04,06,11,04,33.80
2019,04,06,11,05,37.00
2019,04,06,11,06,57.90
2019,04,06,11,07,48.30
2019,04,06,11,08,37.00
2019,04,06,11,09,37.00
2019,04,06,11,10,37.00
2019,04,06,11,11,54.70
2019,04,06,11,12,41.80
2019,04,06,11,13,41.80
2019,04,06,11,14,32.20
2019,04,06,11,15,37.00
2019,04,06,11,16,49.90
2019,04,06,11,17,33.80
2019,04,06,11,18,38.60
2019,04,06,11,19,30.60
2019,04,06,11,20,30.60
2019,04,06,11,21,35.40
2019,04,06,11,22,35.40
2019,04,06,11,23,27.40
2019,04,06,11,24,35.40
2019,04,06,11,25,40.20
2019,04,06,11,26,43.50
2019,04,06,11,27,33.80
2019,04,06,11,28,53.10
2019,04,06,11,29,54.70
2019,04,06,11,30,45.10
2019,04,06,11,31,49.90
2019,04,06,11,32,37.00
2019,04,06,11,33,32.20
2019,04,06,11,34,57.90
2019,04,06,11,35,67.60
2019,04,06,11,36,46.70
2019,04,06,11,37,38.60
2019,04,06,11,38,32.20
2019,04,06,11,39,37.00
2019,04,06,11,40,41.80
2019,04,06,11,41,19.30
2019,04,06,11,42,40.20
2019,04,06,11,43,43.50
2019,04,06,11,44,46.70
2019,04,06,11,45,32.20
2019,04,06,11,46,38.60
2019,04,06,11,47,43.50
2019,04,06,11,48,46.70
2019,04,06,11,49,43.50
2019,04,06,11,50,48.30
2019,04,06,11,51,48.30
2019,04,06,11,52,53.10
2019,04,06,11,53,54.70
2019,04,06,11,54,38.60
2019,04,06,11,55,46.70
2019,04,06,11,56,43.50
2019,04,06,11,57,43.50
2019,04,06,11,58,45.10
2019,04,06,11,59,49.90
2019,04,06,12,00,48.30
2019,04,06,12,01,41.80
2019,04,06,12,02,53.10
2019,04,06,12,03,41.80
2019,04,06,12,04,51.50
2019,04,06,12,05,43.50
2019,04,06,12,06,46.70
2019,04,06,12,07,41.80
2019,04,06,12,08,49.90
2019,04,06,12,09,46.70
2019,04,06,12,10,38.60
2019,04,06,12,11,41.80
2019,04,06,12,12,46.70
2019,04,06,12,13,51.50
2019,04,06,12,14,41.80
2019,04,06,12,15,41.80
2019,04,06,12,16,37.00
2019,04,06,12,17,46.70
2019,04,06,12,18,45.10
2019,04,06,12,19,48.30
2019,04,06,12,20,41.80
2019,04,06,12,21,40.20
2019,04,06,12,22,37.00
2019,04,06,12,23,41.80
2019,04,06,12,24,54.70
2019,04,06,12,25,33.80
2019,04,06,12,26,33.80
2019,04,06,12,27,38.60
2019,04,06,12,28,41.80
2019,04,06,12,29,40.20
2019,04,06,12,30,35.40
2019,04,06,12,31,38.60
2019,04,06,12,32,45.10
2019,04,06,12,33,61.20
2019,04,06,12,34,49.90
2019,04,06,12,35,38.60
2019,04,06,12,36,46.70
2019,04,06,12,37,33.80
2019,04,06,12,38,40.20
2019,04,06,12,39,33.80
2019,04,06,12,40,43.50
2019,04,06,12,41,45.10
2019,04,06,12,42,35.40
2019,04,06,12,43,30.60
2019,04,06,12,44,24.20
2019,04,06,12,45,37.00
2019,04,06,12,46,32.20
2019,04,06,12,47,37.00
2019,04,06,12,48,33.80
2019,04,06,12,49,29.00
2019,04,06,12,50,37.00
2019,04,06,12,51,40.20
2019,04,06,12,52,25.70
2019,04,06,12,53,35.40
2019,04,06,12,54,29.00
2019,04,06,12,55,45.10
2019,04,06,12,56,29.00
2019,04,06,12,57,27.40
2019,04,06,12,58,32.20
2019,04,06,12,59,33.80
2019,04,06,13,00,33.80
2019,04,06,13,01,33.80
2019,04,06,13,02,45.10
2019,04,06,13,03,40.20
2019,04,06,13,04,53.10
2019,04,06,13,05,37.00
2019,04,06,13,06,40.20
2019,04,06,13,07,45.10
2019,04,06,13,08,37.00
2019,04,06,13,09,38.60
2019,04,06,13,10,38.60
2019,04,06,13,11,29.00
2019,04,06,13,12,35.40
2019,04,06,13,13,40.20
2019,04,06,13,14,40.20
2019,04,06,13,15,29.00
2019,04,06,13,16,24.20
2019,04,06,13,17,35.40
2019,04,06,13,18,43.50
2019,04,06,13,19,25.70
2019,04,06,13,20,45.10
2019,04,06,13,21,27.40
2019,04,06,13,22,24.20
2019,04,06,13,23,24.20
2019,04,06,13,24,25.70
2019,04,06,13,25,40.20
2019,04,06,13,26,38.60
2019,04,06,13,27,25.70
2019,04,06,13,28,33.80
2019,04,06,13,29,56.30
2019,04,06,13,30,37.00
2019,04,06,13,31,51.50
2019,04,06,13,32,38.60
2019,04,06,13,33,40.20
2019,04,06,13,34,49.90
2019,04,06,13,35,27.40
2019,04,06,13,36,38.60
2019,04,06,13,37,32.20
2019,04,06,13,38,40.20
2019,04,06,13,39,25.70
2019,04,06,13,40,38.60
2019,04,06,13,41,41.80
2019,04,06,13,42,38.60
2019,04,06,13,43,41.80
2019,04,06,13,44,37.00
2019,04,06,13,45,30.60
2019,04,06,13,46,33.80
2019,04,06,13,47,24.20
2019,04,06,13,48,37.00
2019,04,06,13,49,45.10
2019,04,06,13,50,43.50
2019,04,06,13,51,41.80
2019,04,06,13,52,29.00
2019,04,06,13,53,35.40
2019,04,06,13,54,43.50
2019,04,06,13,55,37.00
2019,04,06,13,56,37.00
2019,04,06,13,57,41.80
2019,04,06,13,58,45.10
2019,04,06,13,59,27.40
2019,04,06,14,00,41.80
2019,04,06,14,01,37.00
2019,04,06,14,02,37.00
2019,04,06,14,03,27.40
2019,04,06,14,04,29.00
2019,04,06,14,05,48.30
2019,04,06,14,06,40.20
2019,04,06,14,07,32.20
2019,04,06,14,08,35.40
2019,04,06,14,09,27.40
2019,04,06,14,10,37.00
2019,04,06,14,11,45.10
2019,04,06,14,12,32.20
2019,04,06,14,13,35.40
2019,04,06,14,14,33.80
2019,04,06,14,15,38.60
2019,04,06,14,16,33.80
2019,04,06,14,17,59.50
2019,04,06,14,18,41.80
2019,04,06,14,19,35.40
2019,04,06,14,20,37.00
2019,04,06,14,21,43.50
2019,04,06,14,22,43.50
2019,04,06,14,23,30.60
2019,04,06,14,24,46.70
2019,04,06,14,25,29.00
2019,04,06,14,26,43.50
2019,04,06,14,27,37.00
2019,04,06,14,28,43.50
2019,04,06,14,29,32.20
2019,04,06,14,30,27.40
2019,04,06,14,31,22.50
2019,04,06,14,32,56.30
2019,04,06,14,33,45.10
2019,04,06,14,34,40.20
2019,04,06,14,35,29.00
2019,04,06,14,36,33.80
2019,04,06,14,37,37.00
2019,04,06,14,38,43.50
2019,04,06,14,39,33.80
2019,04,06,14,40,43.50
2019,04,06,14,41,27.40
2019,04,06,14,42,41.80
2019,04,06,14,43,22.50
2019,04,06,14,44,37.00
2019,04,06,14,45,45.10
2019,04,06,14,46,48.30
2019,04,06,14,47,30.60
2019,04,06,14,48,29.00
2019,04,06,14,49,43.50
2019,04,06,14,50,33.80
2019,04,06,14,51,35.40
2019,04,06,14,52,37.00
2019,04,06,14,53,48.30
2019,04,06,14,54,37.00
2019,04,06,14,55,54.70
2019,04,06,14,56,35.40
2019,04,06,14,57,29.00
2019,04,06,14,58,37.00
2019,04,06,14,59,41.80
2019,04,06,15,00,29.00
2019,04,06,15,01,45.10
2019,04,06,15,02,41.80
2019,04,06,15,03,38.60
2019,04,06,15,04,35.40
2019,04,06,15,05,43.50
2019,04,06,15,06,40.20
2019,04,06,15,07,29.00
2019,04,06,15,08,35.40
2019,04,06,15,09,41.80
2019,04,06,15,10,43.50
2019,04,06,15,11,40.20
2019,04,06,15,12,25.70
2019,04,06,15,13,32.20
2019,04,06,15,14,29.00
2019,04,06,15,15,33.80
2019,04,06,15,16,29.00
2019,04,06,15,17,29.00
2019,04,06,15,18,25.70
2019,04,06,15,19,33.80
2019,04,06,15,20,25.70
2019,04,06,15,21,37.00
2019,04,06,15,22,22.50
2019,04,06,15,23,22.50
2019,04,06,15,24,19.30
2019,04,06,15,25,32.20
2019,04,06,15,26,33.80
2019,04,06,15,27,24.20
2019,04,06,15,28,29.00
2019,04,06,15,29,25.70
2019,04,06,15,30,27.40
2019,04,06,15,31,35.40
2019,04,06,15,32,20.90
2019,04,06,15,33,25.70
2019,04,06,15,34,27.40
2019,04,06,15,35,43.50
2019,04,06,15,36,35.40
2019,04,06,15,37,27.40
2019,04,06,15,38,27.40
2019,04,06,15,39,29.00
2019,04,06,15,40,22.50
2019,04,06,15,41,17.70
2019,04,06,15,42,17.70
2019,04,06,15,43,24.20
2019,04,06,15,44,17.70
2019,04,06,15,45,30.60
2019,04,06,15,46,22.50
2019,04,06,15,47,25.70
2019,04,06,15,48,12.90
2019,04,06,15,49,19.30
2019,04,06,15,50,25.70
2019,04,06,15,51,19.30
2019,04,06,15,52,19.30
2019,04,06,15,53,24.20
2019,04,06,15,54,25.70
2019,04,06,15,55,19.30
2019,04,06,15,56,17.70
2019,04,06,15,57,22.50
2019,04,06,15,58,16.10
2019,04,06,15,59,25.70
2019,04,06,16,00,33.80
2019,04,06,16,01,25.70
2019,04,06,16,02,29.00
2019,04,06,16,03,33.80
2019,04,06,16,04,32.20
2019,04,06,16,05,35.40
2019,04,06,16,06,27.40
2019,04,06,16,07,32.20
2019,04,06,16,08,38.60
2019,04,06,16,09,19.30
2019,04,06,16,10,27.40
2019,04,06,16,11,35.40
2019,04,06,16,12,43.50
2019,04,06,16,13,32.20
2019,04,06,16,14,35.40
2019,04,06,16,15,30.60
2019,04,06,16,16,33.80
2019,04,06,16,17,24.20
2019,04,06,16,18,22.50
2019,04,06,16,19,41.80
2019,04,06,16,20,30.60
2019,04,06,16,21,35.40
2019,04,06,16,22,46.70
2019,04,06,16,23,37.00
2019,04,06,16,24,32.20
2019,04,06,16,25,22.50
2019,04,06,16,26,27.40
2019,04,06,16,27,30.60
2019,04,06,16,28,22.50
2019,04,06,16,29,25.70
2019,04,06,16,30,40.20
2019,04,06,16,31,37.00
2019,04,06,16,32,35.40
2019,04,06,16,33,38.60
2019,04,06,16,34,29.00
2019,04,06,16,35,25.70
2019,04,06,16,36,35.40
2019,04,06,16,37,32.20
2019,04,06,16,38,33.80
2019,04,06,16,39,27.40
2019,04,06,16,40,20.90
2019,04,06,16,41,25.70
2019,04,06,16,42,40.20
2019,04,06,16,43,20.90
2019,04,06,16,44,25.70
2019,04,06,16,45,29.00
2019,04,06,16,46,27.40
2019,04,06,16,47,24.20
2019,04,06,16,48,24.20
2019,04,06,16,49,16.10
2019,04,06,16,50,14.50
2019,04,06,16,51,22.50
2019,04,06,16,52,30.60
2019,04,06,16,53,22.50
2019,04,06,16,54,25.70
2019,04,06,16,55,20.90
2019,04,06,16,56,30.60
2019,04,06,16,57,22.50
2019,04,06,16,58,35.40
2019,04,06,16,59,32.20
2019,04,06,17,00,20.90
2019,04,06,17,01,16.10
2019,04,06,17,02,27.40
2019,04,06,17,03,24.20
2019,04,06,17,04,27.40
2019,04,06,17,05,22.50
2019,04,06,17,06,19.30
2019,04,06,17,07,25.70
2019,04,06,17,08,25.70
2019,04,06,17,09,24.20
2019,04,06,17,10,17.70
2019,04,06,17,11,16.10
2019,04,06,17,12,19.30
2019,04,06,17,13,16.10
2019,04,06,17,14,17.70
2019,04,06,17,15,24.20
2019,04,06,17,16,14.50
2019,04,06,17,17,16.10
2019,04,06,17,18,19.30
2019,04,06,17,19,24.20
2019,04,06,17,20,17.70
2019,04,06,17,21,16.10
2019,04,06,17,22,14.50
2019,04,06,17,23,17.70
2019,04,06,17,24,14.50
2019,04,06,17,25,16.10
2019,04,06,17,26,14.50
2019,04,06,17,27,27.40
2019,04,06,17,28,25.70
2019,04,06,17,29,24.20
2019,04,06,17,30,30.60
2019,04,06,17,31,17.70
2019,04,06,17,32,16.10
2019,04,06,17,33,33.80
2019,04,06,17,34,20.90
2019,04,06,17,35,22.50
2019,04,06,17,36,22.50
2019,04,06,17,37,19.30
2019,04,06,17,38,19.30
2019,04,06,17,39,22.50
2019,04,06,17,40,25.70
2019,04,06,17,41,22.50
2019,04,06,17,42,16.10
2019,04,06,17,43,17.70
2019,04,06,17,44,20.90
2019,04,06,17,45,24.20
2019,04,06,17,46,19.30
2019,04,06,17,47,17.70
2019,04,06,17,48,20.90
2019,04,06,17,49,19.30
2019,04,06,17,50,27.40
2019,04,06,17,51,24.20
2019,04,06,17,52,19.30
2019,04,06,17,53,20.90
2019,04,06,17,54,24.20
2019,04,06,17,55,17.70
2019,04,06,17,56,22.50
2019,04,06,17,57,22.50
2019,04,06,17,58,14.50
2019,04,06,17,59,17.70
2019,04,06,18,00,22.50
2019,04,06,18,01,19.30
2019,04,06,18,02,20.90
2019,04,06,18,03,22.50
2019,04,06,18,04,22.50
2019,04,06,18,05,22.50
2019,04,06,18,06,17.70
2019,04,06,18,07,16.10
2019,04,06,18,08,22.50
2019,04,06,18,09,12.90
2019,04,06,18,10,11.30
2019,04,06,18,11,17.70
2019,04,06,18,12,22.50
2019,04,06,18,13,27.40
2019,04,06,18,14,24.20
2019,04,06,18,15,20.90
2019,04,06,18,16,24.20
2019,04,06,18,17,17.70
2019,04,06,18,18,17.70
2019,04,06,18,19,14.50
2019,04,06,18,20,24.20
2019,04,06,18,21,25.70
2019,04,06,18,22,19.30
2019,04,06,18,23,17.70
2019,04,06,18,24,17.70
2019,04,06,18,25,17.70
2019,04,06,18,26,16.10
2019,04,06,18,27,12.90
2019,04,06,18,28,14.50
2019,04,06,18,29,16.10
2019,04,06,18,30,16.10
2019,04,06,18,31,16.10
2019,04,06,18,32,20.90
2019,04,06,18,33,17.70
2019,04,06,18,34,16.10
2019,04,06,18,35,8.10
2019,04,06,18,36,9.60
2019,04,06,18,37,27.40
2019,04,06,18,38,20.90
2019,04,06,18,39,14.50
2019,04,06,18,40,11.30
2019,04,06,18,41,19.30
2019,04,06,18,42,17.70
2019,04,06,18,43,17.70
2019,04,06,18,44,22.50
2019,04,06,18,45,20.90
2019,04,06,18,46,14.50
2019,04,06,18,47,19.30
2019,04,06,18,48,25.70
2019,04,06,18,49,19.30
2019,04,06,18,50,17.70
2019,04,06,18,51,17.70
2019,04,06,18,52,12.90
2019,04,06,18,53,12.90
2019,04,06,18,54,12.90
2019,04,06,18,55,8.10
2019,04,06,18,56,9.60
2019,04,06,18,57,12.90
2019,04,06,18,58,14.50
2019,04,06,18,59,16.10
2019,04,06,19,00,14.50
2019,04,06,19,01,12.90
2019,04,06,19,02,12.90
2019,04,06,19,03,11.30
2019,04,06,19,04,17.70
2019,04,06,19,05,16.10
2019,04,06,19,06,17.70
2019,04,06,19,07,8.10
2019,04,06,19,08,8.10
2019,04,06,19,09,14.50
2019,04,06,19,10,14.50
2019,04,06,19,11,16.10
2019,04,06,19,12,9.60
2019,04,06,19,13,12.90
2019,04,06,19,14,12.90
2019,04,06,19,15,6.40
2019,04,06,19,16,6.40
2019,04,06,19,17,20.90
2019,04,06,19,18,22.50
2019,04,06,19,19,14.50
2019,04,06,19,20,14.50
2019,04,06,19,21,20.90
2019,04,06,19,22,17.70
2019,04,06,19,23,12.90
2019,04,06,19,24,16.10
2019,04,06,19,25,14.50
2019,04,06,19,26,14.50
2019,04,06,19,27,8.10
2019,04,06,19,28,12.90
2019,04,06,19,29,14.50
2019,04,06,19,30,14.50